| time (UTC) | temp F | wind direction | speed MPH | gust MPH | rain 1hr in | rain 24hr in | rain mn in | humidity % | barometer mb |
| 20260506213045 | 57 | 187 | 5.0 | 7.0 | 0.00 | 0.00 | 0.00 | 75 | 1023.7 |
| 20260506212541 | 57 | 160 | 1.0 | 6.0 | 0.00 | 0.00 | 0.00 | 76 | 1023.8 |
| 20260506212036 | 57 | 177 | 1.0 | 5.0 | 0.00 | 0.00 | 0.00 | 77 | 1023.9 |
| 20260506211532 | 57 | 187 | 3.0 | 6.0 | 0.00 | 0.00 | 0.00 | 75 | 1024.0 |
| 20260506211030 | 56 | 208 | 3.0 | 3.0 | 0.00 | 0.00 | 0.00 | 76 | 1023.8 |
| 20260506210526 | 57 | 149 | 3.0 | 7.0 | 0.00 | 0.00 | 0.00 | 75 | 1023.7 |
| 20260506210023 | 57 | 235 | 4.0 | 6.0 | 0.00 | 0.00 | 0.00 | 75 | 1023.7 |
| 20260506205520 | 57 | 201 | 5.0 | 7.0 | 0.00 | 0.00 | 0.00 | 75 | 1023.6 |
| 20260506205015 | 56 | 157 | 2.0 | 7.0 | 0.00 | 0.00 | 0.00 | 76 | 1023.6 |
| 20260506204514 | 56 | 202 | 4.0 | 8.0 | 0.00 | 0.00 | 0.00 | 75 | 1023.8 |
| 20260506204010 | 56 | 184 | 4.0 | 7.0 | 0.00 | 0.00 | 0.00 | 76 | 1023.7 |
| 20260506203508 | 56 | 192 | 4.0 | 6.0 | 0.00 | 0.00 | 0.00 | 76 | 1023.6 |
| 20260506202959 | 56 | 129 | 5.0 | 9.0 | 0.00 | 0.00 | 0.00 | 76 | 1024.0 |
| 20260506202456 | 56 | 262 | 4.0 | 7.0 | 0.00 | 0.00 | 0.00 | 76 | 1023.7 |
| 20260506201952 | 56 | 183 | 7.0 | 8.0 | 0.00 | 0.00 | 0.00 | 77 | 1023.7 |
| 20260506201450 | 56 | 193 | 3.0 | 7.0 | 0.00 | 0.00 | 0.00 | 77 | 1023.6 |
| 20260506200946 | 56 | 208 | 5.0 | 6.0 | 0.00 | 0.00 | 0.00 | 77 | 1023.5 |
| 20260506200442 | 56 | 193 | 3.0 | 6.0 | 0.00 | 0.00 | 0.00 | 77 | 1023.4 |
| 20260506195939 | 56 | 170 | 3.0 | 6.0 | 0.00 | 0.00 | 0.00 | 77 | 1023.4 |
| 20260506195436 | 55 | 178 | 1.0 | 6.0 | 0.00 | 0.00 | 0.00 | 77 | 1023.5 |
| 20260506194932 | 56 | 160 | 2.0 | 6.0 | 0.00 | 0.00 | 0.00 | 77 | 1023.5 |
| 20260506194430 | 56 | 165 | 5.0 | 7.0 | 0.00 | 0.00 | 0.00 | 77 | 1023.4 |
| 20260506193927 | 55 | 180 | 1.0 | 2.0 | 0.00 | 0.00 | 0.00 | 79 | 1023.4 |
| 20260506193424 | 55 | 208 | 4.0 | 5.0 | 0.00 | 0.00 | 0.00 | 78 | 1023.6 |
| 20260506192920 | 55 | 149 | 4.0 | 5.0 | 0.00 | 0.00 | 0.00 | 78 | 1023.3 |
| 20260506192417 | 55 | 193 | 2.0 | 2.0 | 0.00 | 0.00 | 0.00 | 78 | 1023.4 |
| 20260506191914 | 55 | 231 | 5.0 | 6.0 | 0.00 | 0.00 | 0.00 | 78 | 1023.2 |
| 20260506191410 | 55 | 222 | 3.0 | 5.0 | 0.00 | 0.00 | 0.00 | 78 | 1023.3 |
| 20260506190908 | 55 | 199 | 4.0 | 6.0 | 0.00 | 0.00 | 0.00 | 79 | 1023.5 |
| 20260506190404 | 55 | 224 | 2.0 | 3.0 | 0.00 | 0.00 | 0.00 | 80 | 1023.2 |
| 20260506185901 | 55 | 179 | 1.0 | 3.0 | 0.00 | 0.00 | 0.00 | 81 | 1023.3 |
| 20260506185358 | 55 | 142 | 3.0 | 6.0 | 0.00 | 0.00 | 0.00 | 81 | 1023.4 |
| 20260506184855 | 54 | 203 | 4.0 | 5.0 | 0.00 | 0.00 | 0.00 | 82 | 1023.5 |
| 20260506184352 | 54 | 223 | 5.0 | 6.0 | 0.00 | 0.00 | 0.00 | 83 | 1023.5 |
| 20260506183849 | 54 | 196 | 4.0 | 5.0 | 0.00 | 0.00 | 0.00 | 84 | 1023.3 |
| 20260506183344 | 54 | 187 | 2.0 | 5.0 | 0.00 | 0.00 | 0.00 | 84 | 1023.3 |
| 20260506182842 | 54 | 174 | 2.0 | 3.0 | 0.00 | 0.00 | 0.00 | 85 | 1023.4 |
| 20260506182339 | 54 | 212 | 0.0 | 5.0 | 0.00 | 0.00 | 0.00 | 85 | 1023.4 |
| 20260506181836 | 54 | 188 | 4.0 | 6.0 | 0.00 | 0.00 | 0.00 | 85 | 1023.4 |
| 20260506181334 | 53 | 153 | 4.0 | 6.0 | 0.00 | 0.00 | 0.00 | 86 | 1023.1 |
| 20260506180831 | 53 | 223 | 3.0 | 7.0 | 0.00 | 0.00 | 0.00 | 86 | 1023.1 |
| 20260506180327 | 53 | 239 | 4.0 | 5.0 | 0.00 | 0.00 | 0.00 | 87 | 1023.1 |
| 20260506175823 | 53 | 187 | 5.0 | 6.0 | 0.00 | 0.00 | 0.00 | 87 | 1023.1 |
| 20260506175320 | 53 | 171 | 3.0 | 6.0 | 0.00 | 0.00 | 0.00 | 87 | 1023.2 |
| 20260506174818 | 53 | 196 | 3.0 | 7.0 | 0.00 | 0.00 | 0.00 | 87 | 1023.2 |
| 20260506174315 | 54 | 215 | 2.0 | 3.0 | 0.00 | 0.00 | 0.00 | 88 | 1023.0 |
| 20260506173812 | 54 | 186 | 2.0 | 5.0 | 0.00 | 0.00 | 0.00 | 88 | 1023.2 |
| 20260506173309 | 54 | 135 | 2.0 | 5.0 | 0.00 | 0.00 | 0.00 | 88 | 1023.3 |
| 20260506172806 | 54 | 198 | 3.0 | 6.0 | 0.00 | 0.00 | 0.00 | 88 | 1023.3 |
| 20260506172306 | 54 | 193 | 2.0 | 2.0 | 0.00 | 0.00 | 0.00 | 89 | 1023.1 |
| 20260506171800 | 53 | 182 | 1.0 | 3.0 | 0.00 | 0.00 | 0.00 | 89 | 1023.2 |
| 20260506171257 | 53 | 222 | 3.0 | 5.0 | 0.00 | 0.00 | 0.00 | 90 | 1023.3 |
| 20260506170755 | 53 | 162 | 2.0 | 3.0 | 0.00 | 0.00 | 0.00 | 91 | 1023.1 |
| 20260506170251 | 53 | 192 | 2.0 | 3.0 | 0.00 | 0.00 | 0.00 | 91 | 1023.1 |
| 20260506165749 | 53 | 182 | 2.0 | 2.0 | 0.00 | 0.00 | 0.00 | 92 | 1023.2 |
| 20260506165247 | 53 | 176 | 3.0 | 3.0 | 0.00 | 0.00 | 0.00 | 92 | 1023.3 |
| 20260506164743 | 53 | 213 | 3.0 | 5.0 | 0.00 | 0.00 | 0.00 | 93 | 1023.3 |
| 20260506164240 | 53 | 186 | 3.0 | 6.0 | 0.00 | 0.00 | 0.00 | 93 | 1023.1 |
| 20260506163737 | 53 | 203 | 3.0 | 5.0 | 0.00 | 0.00 | 0.00 | 93 | 1023.0 |
| 20260506163232 | 53 | 226 | 2.0 | 3.0 | 0.00 | 0.00 | 0.00 | 94 | 1022.8 |
| 20260506162728 | 53 | 212 | 5.0 | 6.0 | 0.00 | 0.00 | 0.00 | 94 | 1022.8 |
| 20260506162226 | 52 | 184 | 1.0 | 2.0 | 0.00 | 0.00 | 0.00 | 95 | 1022.6 |
| 20260506161723 | 52 | 141 | 3.0 | 3.0 | 0.00 | 0.00 | 0.00 | 95 | 1022.6 |
| 20260506161220 | 52 | 201 | 2.0 | 3.0 | 0.00 | 0.00 | 0.00 | 95 | 1022.5 |
| 20260506160718 | 52 | 167 | 2.0 | 3.0 | 0.00 | 0.00 | 0.00 | 95 | 1022.5 |
| 20260506160214 | 52 | 165 | 4.0 | 5.0 | 0.00 | 0.00 | 0.00 | 95 | 1022.6 |
| 20260506155713 | 52 | 166 | 1.0 | 5.0 | 0.00 | 0.00 | 0.00 | 95 | 1022.8 |
| 20260506155210 | 52 | 207 | 3.0 | 3.0 | 0.00 | 0.00 | 0.00 | 95 | 1022.7 |
| 20260506153311 | 52 | 181 | 3.0 | 3.0 | 0.00 | 0.00 | 0.00 | 94 | 1022.9 |
| 20260506152808 | 52 | 166 | 2.0 | 3.0 | 0.00 | 0.00 | 0.00 | 94 | 1022.8 |
| 20260506152306 | 52 | 177 | 2.0 | 5.0 | 0.00 | 0.00 | 0.00 | 94 | 1022.8 |
| 20260506151804 | 52 | 179 | 1.0 | 2.0 | 0.00 | 0.00 | 0.00 | 94 | 1022.5 |
| 20260506151300 | 52 | 180 | 1.0 | 1.0 | 0.00 | 0.00 | 0.00 | 94 | 1022.3 |
| 20260506150757 | 52 | 168 | 2.0 | 2.0 | 0.00 | 0.00 | 0.00 | 94 | 1022.4 |
| 20260506150302 | 52 | 160 | 3.0 | 3.0 | 0.00 | 0.00 | 0.00 | 94 | 1022.7 |
| 20260506145751 | 52 | 218 | 3.0 | 3.0 | 0.00 | 0.00 | 0.00 | 94 | 1022.6 |
| 20260506145248 | 52 | 178 | 3.0 | 5.0 | 0.00 | 0.00 | 0.00 | 94 | 1022.8 |
| 20260506144745 | 52 | 138 | 2.0 | 2.0 | 0.00 | 0.00 | 0.00 | 94 | 1022.9 |
| 20260506144242 | 52 | 234 | 4.0 | 6.0 | 0.00 | 0.00 | 0.00 | 94 | 1022.9 |
| 20260506143740 | 52 | 216 | 3.0 | 5.0 | 0.00 | 0.00 | 0.00 | 93 | 1022.5 |
| 20260506143237 | 52 | 180 | 1.0 | 5.0 | 0.00 | 0.00 | 0.00 | 93 | 1022.6 |
| 20260506142735 | 52 | 230 | 4.0 | 5.0 | 0.00 | 0.00 | 0.00 | 93 | 1022.5 |
| 20260506142233 | 52 | 190 | 0.0 | 1.0 | 0.00 | 0.00 | 0.00 | 93 | 1022.4 |
| 20260506141731 | 52 | 155 | 0.0 | 2.0 | 0.00 | 0.00 | 0.00 | 93 | 1022.2 |
| 20260506141229 | 52 | 214 | 4.0 | 5.0 | 0.00 | 0.00 | 0.00 | 92 | 1022.4 |
| 20260506140726 | 52 | 167 | 2.0 | 5.0 | 0.00 | 0.00 | 0.00 | 92 | 1022.3 |
| 20260506140223 | 52 | 181 | 3.0 | 3.0 | 0.00 | 0.00 | 0.00 | 92 | 1022.4 |
| 20260506135719 | 52 | 184 | 3.0 | 5.0 | 0.00 | 0.00 | 0.00 | 92 | 1022.8 |
| 20260506135216 | 53 | 220 | 2.0 | 3.0 | 0.00 | 0.00 | 0.00 | 91 | 1022.6 |
| 20260506134713 | 53 | 151 | 0.0 | 1.0 | 0.00 | 0.00 | 0.00 | 91 | 1022.3 |
| 20260506134209 | 53 | 197 | 2.0 | 3.0 | 0.00 | 0.00 | 0.00 | 91 | 1022.4 |
| 20260506133707 | 53 | 222 | 3.0 | 5.0 | 0.00 | 0.00 | 0.00 | 91 | 1022.3 |
| 20260506133203 | 53 | 171 | 1.0 | 3.0 | 0.00 | 0.00 | 0.00 | 91 | 1022.2 |
| 20260506132700 | 53 | 232 | 3.0 | 7.0 | 0.00 | 0.00 | 0.00 | 90 | 1022.2 |
| 20260506132157 | 53 | 183 | 1.0 | 6.0 | 0.00 | 0.00 | 0.00 | 90 | 1022.3 |
| 20260506131655 | 53 | 242 | 5.0 | 6.0 | 0.00 | 0.00 | 0.00 | 90 | 1021.9 |
| 20260506131151 | 53 | 189 | 2.0 | 3.0 | 0.00 | 0.00 | 0.00 | 90 | 1021.8 |
| 20260506130647 | 53 | 184 | 4.0 | 5.0 | 0.00 | 0.00 | 0.00 | 90 | 1021.8 |
| 20260506130145 | 53 | 196 | 3.0 | 3.0 | 0.00 | 0.00 | 0.00 | 90 | 1022.0 |
| 20260506125643 | 53 | 173 | 0.0 | 1.0 | 0.00 | 0.00 | 0.00 | 90 | 1021.9 |
| 20260506125141 | 53 | 156 | 2.0 | 5.0 | 0.00 | 0.00 | 0.00 | 90 | 1021.8 |
| 20260506124638 | 53 | 150 | 2.0 | 2.0 | 0.00 | 0.00 | 0.00 | 90 | 1021.7 |
| 20260506124136 | 53 | 203 | 3.0 | 3.0 | 0.00 | 0.00 | 0.00 | 90 | 1021.8 |
| 20260506123633 | 53 | 182 | 1.0 | 2.0 | 0.00 | 0.00 | 0.00 | 90 | 1021.7 |
| 20260506123132 | 53 | 168 | 3.0 | 3.0 | 0.00 | 0.00 | 0.00 | 90 | 1021.5 |
| 20260506122628 | 53 | 220 | 1.0 | 3.0 | 0.00 | 0.00 | 0.00 | 90 | 1022.0 |
| 20260506122126 | 53 | 167 | 1.0 | 3.0 | 0.00 | 0.00 | 0.00 | 90 | 1021.6 |
| 20260506121623 | 53 | 208 | 3.0 | 5.0 | 0.00 | 0.00 | 0.00 | 90 | 1021.5 |
| 20260506121120 | 53 | 148 | 4.0 | 5.0 | 0.00 | 0.00 | 0.00 | 89 | 1021.5 |
| 20260506120618 | 53 | 176 | 1.0 | 2.0 | 0.00 | 0.00 | 0.00 | 89 | 1021.9 |
| 20260506120115 | 53 | 200 | 3.0 | 6.0 | 0.00 | 0.00 | 0.00 | 89 | 1021.6 |
| 20260506115613 | 53 | 190 | 3.0 | 3.0 | 0.00 | 0.00 | 0.00 | 89 | 1021.5 |
| 20260506115111 | 53 | 218 | 2.0 | 2.0 | 0.00 | 0.00 | 0.00 | 89 | 1021.5 |
| 20260506114608 | 53 | 179 | 1.0 | 3.0 | 0.00 | 0.00 | 0.00 | 89 | 1021.5 |
| 20260506114106 | 53 | 157 | 1.0 | 2.0 | 0.00 | 0.00 | 0.00 | 89 | 1021.4 |
| 20260506113604 | 53 | 194 | 3.0 | 6.0 | 0.00 | 0.00 | 0.00 | 89 | 1021.5 |
| 20260506113101 | 53 | 210 | 1.0 | 3.0 | 0.00 | 0.00 | 0.00 | 88 | 1021.3 |
| 20260506112557 | 53 | 183 | 1.0 | 3.0 | 0.00 | 0.00 | 0.00 | 88 | 1021.4 |
| 20260506112055 | 53 | 164 | 2.0 | 2.0 | 0.00 | 0.00 | 0.00 | 88 | 1021.3 |
| 20260506111553 | 53 | 206 | 4.0 | 5.0 | 0.00 | 0.00 | 0.00 | 88 | 1021.5 |
| 20260506111050 | 53 | 173 | 3.0 | 3.0 | 0.00 | 0.00 | 0.00 | 88 | 1021.4 |
| 20260506110547 | 53 | 193 | 2.0 | 2.0 | 0.00 | 0.00 | 0.00 | 88 | 1021.3 |
| 20260506110044 | 53 | 198 | 1.0 | 3.0 | 0.00 | 0.00 | 0.00 | 88 | 1021.3 |
| 20260506105540 | 53 | 230 | 3.0 | 5.0 | 0.00 | 0.00 | 0.00 | 88 | 1021.4 |
| 20260506105038 | 53 | 186 | 2.0 | 3.0 | 0.00 | 0.00 | 0.00 | 88 | 1021.2 |
| 20260506104536 | 53 | 187 | 2.0 | 5.0 | 0.00 | 0.00 | 0.00 | 88 | 1021.1 |
| 20260506104033 | 53 | 190 | 2.0 | 3.0 | 0.00 | 0.00 | 0.00 | 88 | 1021.3 |
| 20260506103531 | 53 | 167 | 2.0 | 5.0 | 0.00 | 0.00 | 0.00 | 88 | 1021.2 |
| 20260506103027 | 53 | 236 | 3.0 | 3.0 | 0.00 | 0.00 | 0.00 | 88 | 1021.1 |
| 20260506102526 | 53 | 220 | 3.0 | 3.0 | 0.00 | 0.00 | 0.00 | 88 | 1021.1 |
| 20260506102023 | 53 | 173 | 3.0 | 3.0 | 0.00 | 0.00 | 0.00 | 88 | 1020.9 |
| 20260506101519 | 53 | 162 | 3.0 | 3.0 | 0.00 | 0.00 | 0.00 | 88 | 1020.9 |
| 20260506101016 | 53 | 187 | 2.0 | 3.0 | 0.00 | 0.00 | 0.00 | 88 | 1020.8 |
| 20260506100514 | 53 | 175 | 3.0 | 3.0 | 0.00 | 0.00 | 0.00 | 88 | 1020.7 |
| 20260506100013 | 53 | 166 | 2.0 | 3.0 | 0.00 | 0.00 | 0.00 | 88 | 1020.9 |
| 20260506095511 | 53 | 167 | 4.0 | 6.0 | 0.00 | 0.00 | 0.00 | 88 | 1020.7 |
| 20260506095006 | 53 | 209 | 2.0 | 3.0 | 0.00 | 0.00 | 0.00 | 88 | 1020.6 |
| 20260506094505 | 53 | 189 | 2.0 | 2.0 | 0.00 | 0.00 | 0.00 | 87 | 1020.7 |
| 20260506094002 | 53 | 205 | 5.0 | 7.0 | 0.00 | 0.00 | 0.00 | 87 | 1020.7 |
| 20260506093500 | 53 | 195 | 5.0 | 7.0 | 0.00 | 0.00 | 0.00 | 87 | 1020.7 |
| 20260506092958 | 53 | 156 | 4.0 | 5.0 | 0.00 | 0.00 | 0.00 | 87 | 1020.6 |
| 20260506092455 | 54 | 214 | 3.0 | 8.0 | 0.00 | 0.00 | 0.00 | 87 | 1020.5 |
| 20260506091951 | 54 | 193 | 3.0 | 6.0 | 0.00 | 0.00 | 0.00 | 88 | 1020.5 |
| 20260506091450 | 54 | 230 | 4.0 | 5.0 | 0.00 | 0.00 | 0.00 | 88 | 1020.5 |
| 20260506090947 | 54 | 194 | 2.0 | 6.0 | 0.00 | 0.00 | 0.00 | 88 | 1020.5 |
| 20260506090445 | 54 | 206 | 3.0 | 5.0 | 0.00 | 0.00 | 0.00 | 88 | 1020.5 |
| 20260506085941 | 54 | 202 | 3.0 | 5.0 | 0.00 | 0.00 | 0.00 | 87 | 1020.4 |
| 20260506085438 | 54 | 195 | 3.0 | 5.0 | 0.00 | 0.00 | 0.00 | 87 | 1020.2 |
| 20260506084934 | 54 | 162 | 2.0 | 6.0 | 0.00 | 0.00 | 0.00 | 88 | 1020.3 |
| 20260506084431 | 54 | 210 | 2.0 | 3.0 | 0.00 | 0.00 | 0.00 | 88 | 1020.4 |
| 20260506083927 | 54 | 187 | 2.0 | 3.0 | 0.00 | 0.00 | 0.00 | 88 | 1020.1 |
| 20260506083425 | 54 | 199 | 0.0 | 1.0 | 0.00 | 0.00 | 0.00 | 87 | 1020.2 |
| 20260506082922 | 54 | 160 | 1.0 | 3.0 | 0.00 | 0.00 | 0.00 | 87 | 1020.3 |
| 20260506082419 | 54 | 175 | 1.0 | 2.0 | 0.00 | 0.00 | 0.00 | 87 | 1020.2 |
| 20260506081914 | 54 | 151 | 2.0 | 2.0 | 0.00 | 0.00 | 0.00 | 87 | 1020.3 |
| 20260506081414 | 53 | 178 | 3.0 | 3.0 | 0.00 | 0.00 | 0.00 | 88 | 1020.3 |
| 20260506080910 | 53 | 198 | 3.0 | 3.0 | 0.00 | 0.00 | 0.00 | 87 | 1020.3 |
| 20260506080407 | 54 | 215 | 3.0 | 3.0 | 0.00 | 0.00 | 0.00 | 88 | 1020.2 |
| 20260506073351 | 54 | 175 | 3.0 | 3.0 | 0.00 | 0.00 | 0.00 | 89 | 1019.9 |
| 20260506072847 | 54 | 191 | 1.0 | 2.0 | 0.00 | 0.00 | 0.00 | 88 | 1019.9 |
| 20260506072345 | 54 | 186 | 1.0 | 2.0 | 0.00 | 0.00 | 0.00 | 88 | 1019.9 |
| 20260506071843 | 54 | 161 | 2.0 | 3.0 | 0.00 | 0.00 | 0.00 | 88 | 1019.7 |
| 20260506071341 | 54 | 194 | 1.0 | 2.0 | 0.00 | 0.00 | 0.00 | 88 | 1019.8 |
| 20260506070837 | 54 | 169 | 1.0 | 3.0 | 0.00 | 0.00 | 0.00 | 88 | 1019.7 |
| 20260506070334 | 54 | 158 | 2.0 | 3.0 | 0.00 | 0.00 | 0.00 | 88 | 1019.7 |
| 20260506062312 | 55 | 186 | 1.0 | 3.0 | 0.00 | 0.00 | 0.00 | 87 | 1019.2 |
| 20260506061807 | 55 | 200 | 3.0 | 5.0 | 0.00 | 0.00 | 0.00 | 87 | 1019.3 |
| 20260506061304 | 55 | 214 | 3.0 | 3.0 | 0.00 | 0.00 | 0.00 | 88 | 1019.4 |
| 20260506060803 | 55 | 202 | 1.0 | 2.0 | 0.00 | 0.00 | 0.00 | 88 | 1019.2 |
| 20260506060300 | 55 | 186 | 1.0 | 1.0 | 0.00 | 0.00 | 0.00 | 89 | 1019.2 |
| 20260506051232 | 53 | 149 | 0.0 | 0.0 | 0.00 | 0.00 | 0.00 | 92 | 1018.7 |
| 20260506050730 | 53 | 150 | 0.0 | 0.0 | 0.00 | 0.00 | 0.00 | 92 | 1018.8 |
| 20260506050227 | 54 | 150 | 0.0 | 0.0 | 0.00 | 0.00 | 0.00 | 92 | 1018.6 |
| 20260506044718 | 54 | 149 | 0.0 | 0.0 | 0.00 | 0.00 | 0.00 | 91 | 1018.6 |
| 20260506044215 | 54 | 149 | 0.0 | 0.0 | 0.00 | 0.00 | 0.00 | 91 | 1018.8 |
| 20260506043712 | 54 | 149 | 0.0 | 0.0 | 0.00 | 0.00 | 0.00 | 90 | 1018.8 |
| 20260506043210 | 55 | 149 | 0.0 | 0.0 | 0.00 | 0.00 | 0.00 | 90 | 1018.4 |
| 20260506042709 | 55 | 149 | 0.0 | 0.0 | 0.00 | 0.00 | 0.00 | 90 | 1018.6 |
| 20260506042206 | 55 | 149 | 0.0 | 0.0 | 0.00 | 0.00 | 0.00 | 89 | 1018.5 |
| 20260506041704 | 55 | 141 | 0.0 | 0.0 | 0.00 | 0.00 | 0.00 | 89 | 1018.4 |
| 20260506041201 | 55 | 148 | 0.0 | 1.0 | 0.00 | 0.00 | 0.00 | 89 | 1018.4 |
| 20260506040659 | 55 | 152 | 0.0 | 1.0 | 0.00 | 0.00 | 0.00 | 88 | 1018.4 |
| 20260506040155 | 56 | 157 | 1.0 | 1.0 | 0.00 | 0.00 | 0.00 | 88 | 1018.4 |
| 20260506035652 | 56 | 150 | 0.0 | 0.0 | 0.00 | 0.00 | 0.00 | 87 | 1018.3 |
| 20260506035149 | 56 | 181 | 1.0 | 1.0 | 0.00 | 0.00 | 0.00 | 87 | 1018.3 |
| 20260506034646 | 56 | 148 | 0.0 | 1.0 | 0.00 | 0.00 | 0.00 | 87 | 1018.4 |
| 20260506034143 | 57 | 142 | 1.0 | 2.0 | 0.00 | 0.00 | 0.00 | 86 | 1018.2 |
| 20260506033640 | 57 | 154 | 1.0 | 1.0 | 0.00 | 0.00 | 0.00 | 86 | 1018.1 |
| 20260506033137 | 57 | 142 | 1.0 | 2.0 | 0.00 | 0.00 | 0.00 | 85 | 1018.0 |
| 20260506032634 | 57 | 140 | 1.0 | 2.0 | 0.00 | 0.00 | 0.00 | 85 | 1018.0 |
| 20260506032131 | 57 | 157 | 1.0 | 2.0 | 0.00 | 0.00 | 0.00 | 84 | 1018.0 |
| 20260506031628 | 58 | 136 | 2.0 | 2.0 | 0.00 | 0.00 | 0.00 | 83 | 1017.8 |
| 20260506031125 | 58 | 141 | 1.0 | 1.0 | 0.00 | 0.00 | 0.00 | 82 | 1018.0 |
| 20260506030624 | 59 | 149 | 1.0 | 2.0 | 0.00 | 0.00 | 0.00 | 81 | 1017.7 |
| 20260506030120 | 59 | 152 | 2.0 | 2.0 | 0.00 | 0.00 | 0.00 | 81 | 1017.8 |
| 20260506025617 | 59 | 150 | 0.0 | 1.0 | 0.00 | 0.00 | 0.00 | 80 | 1017.8 |
| 20260506025113 | 60 | 157 | 1.0 | 1.0 | 0.00 | 0.00 | 0.00 | 79 | 1017.7 |
| 20260506024611 | 60 | 158 | 1.0 | 2.0 | 0.00 | 0.00 | 0.00 | 77 | 1017.9 |
| 20260506024107 | 61 | 166 | 1.0 | 2.0 | 0.00 | 0.00 | 0.00 | 76 | 1017.7 |
| 20260506023603 | 62 | 162 | 1.0 | 2.0 | 0.00 | 0.00 | 0.00 | 74 | 1017.7 |
| 20260506023101 | 62 | 173 | 2.0 | 2.0 | 0.00 | 0.00 | 0.00 | 72 | 1017.8 |
| 20260506022558 | 62 | 168 | 0.0 | 2.0 | 0.00 | 0.00 | 0.00 | 73 | 1017.8 |
| 20260506022055 | 62 | 172 | 1.0 | 3.0 | 0.00 | 0.00 | 0.00 | 73 | 1017.7 |
| 20260506021553 | 62 | 196 | 3.0 | 3.0 | 0.00 | 0.00 | 0.00 | 73 | 1017.7 |
| 20260506021050 | 62 | 164 | 1.0 | 3.0 | 0.00 | 0.00 | 0.00 | 71 | 1017.9 |
| 20260506020547 | 63 | 193 | 2.0 | 2.0 | 0.00 | 0.00 | 0.00 | 71 | 1017.8 |
| 20260506020044 | 63 | 190 | 1.0 | 6.0 | 0.00 | 0.00 | 0.00 | 71 | 1018.0 |
| 20260506015542 | 63 | 177 | 2.0 | 3.0 | 0.00 | 0.00 | 0.00 | 71 | 1017.8 |
| 20260506015039 | 63 | 197 | 1.0 | 2.0 | 0.00 | 0.00 | 0.00 | 71 | 1017.7 |
| 20260506014536 | 63 | 199 | 3.0 | 3.0 | 0.00 | 0.00 | 0.00 | 69 | 1017.7 |
| 20260506014031 | 63 | 209 | 3.0 | 3.0 | 0.00 | 0.00 | 0.00 | 70 | 1018.0 |
| 20260506013530 | 63 | 208 | 2.0 | 2.0 | 0.00 | 0.00 | 0.00 | 70 | 1017.7 |
| 20260506013026 | 64 | 188 | 1.0 | 2.0 | 0.00 | 0.00 | 0.00 | 68 | 1017.7 |
| 20260506012523 | 64 | 226 | 3.0 | 3.0 | 0.00 | 0.00 | 0.00 | 68 | 1017.8 |
| 20260506012020 | 64 | 212 | 1.0 | 2.0 | 0.00 | 0.00 | 0.00 | 68 | 1017.9 |
| 20260506011517 | 64 | 211 | 2.0 | 3.0 | 0.00 | 0.00 | 0.00 | 67 | 1018.1 |
| 20260506011014 | 64 | 164 | 1.0 | 3.0 | 0.00 | 0.00 | 0.00 | 67 | 1017.9 |
| 20260506010513 | 65 | 196 | 2.0 | 5.0 | 0.00 | 0.00 | 0.00 | 67 | 1017.8 |
| 20260506010009 | 65 | 181 | 3.0 | 5.0 | 0.00 | 0.00 | 0.00 | 67 | 1017.9 |
| 20260506005507 | 65 | 165 | 1.0 | 2.0 | 0.00 | 0.00 | 0.00 | 67 | 1018.0 |
| 20260506005001 | 64 | 171 | 3.0 | 5.0 | 0.00 | 0.00 | 0.00 | 67 | 1018.0 |
| 20260506004500 | 64 | 162 | 3.0 | 3.0 | 0.00 | 0.00 | 0.00 | 67 | 1017.9 |
| 20260506003955 | 65 | 161 | 3.0 | 6.0 | 0.00 | 0.00 | 0.00 | 66 | 1018.1 |
| 20260506003452 | 65 | 185 | 3.0 | 3.0 | 0.00 | 0.00 | 0.00 | 67 | 1018.1 |
| 20260506002948 | 65 | 188 | 3.0 | 5.0 | 0.00 | 0.00 | 0.00 | 65 | 1018.2 |
| 20260506002445 | 65 | 152 | 4.0 | 6.0 | 0.00 | 0.00 | 0.00 | 66 | 1018.2 |
| 20260506001940 | 64 | 181 | 2.0 | 3.0 | 0.00 | 0.00 | 0.00 | 67 | 1018.2 |
| 20260506001437 | 65 | 176 | 3.0 | 5.0 | 0.00 | 0.00 | 0.00 | 67 | 1018.1 |
| 20260506000935 | 65 | 172 | 2.0 | 6.0 | 0.00 | 0.00 | 0.00 | 67 | 1018.2 |
| 20260506000432 | 65 | 226 | 3.0 | 8.0 | 0.00 | 0.00 | 0.00 | 66 | 1018.3 |
| 20260505235929 | 65 | 191 | 4.0 | 6.0 | 0.00 | 0.00 | 0.00 | 66 | 1018.2 |
| 20260505235427 | 65 | 179 | 1.0 | 3.0 | 0.00 | 0.00 | 0.00 | 67 | 1018.2 |
| 20260505234923 | 64 | 180 | 1.0 | 2.0 | 0.00 | 0.00 | 0.00 | 68 | 1018.4 |
| 20260505234421 | 64 | 204 | 4.0 | 5.0 | 0.00 | 0.00 | 0.00 | 68 | 1018.4 |
| 20260505233917 | 65 | 211 | 2.0 | 3.0 | 0.00 | 0.00 | 0.00 | 67 | 1018.4 |
| 20260505233415 | 64 | 215 | 3.0 | 5.0 | 0.00 | 0.00 | 0.00 | 68 | 1018.5 |
| 20260505232913 | 64 | 203 | 4.0 | 6.0 | 0.00 | 0.00 | 0.00 | 68 | 1018.6 |
| 20260505232411 | 64 | 180 | 2.0 | 6.0 | 0.00 | 0.00 | 0.00 | 68 | 1018.6 |
| 20260505231907 | 64 | 188 | 3.0 | 11.0 | 0.00 | 0.00 | 0.00 | 67 | 1018.8 |
| 20260505231405 | 64 | 207 | 4.0 | 6.0 | 0.00 | 0.00 | 0.00 | 67 | 1018.8 |
| 20260505230903 | 64 | 156 | 3.0 | 8.0 | 0.00 | 0.00 | 0.00 | 67 | 1018.7 |
| 20260505230400 | 63 | 170 | 2.0 | 6.0 | 0.00 | 0.00 | 0.00 | 68 | 1018.5 |
| 20260505225856 | 63 | 208 | 3.0 | 7.0 | 0.00 | 0.00 | 0.00 | 69 | 1019.0 |
| 20260505225354 | 63 | 172 | 3.0 | 5.0 | 0.00 | 0.00 | 0.00 | 70 | 1018.8 |
| 20260505224849 | 62 | 200 | 3.0 | 5.0 | 0.00 | 0.00 | 0.00 | 70 | 1018.6 |
| 20260505224347 | 62 | 184 | 2.0 | 5.0 | 0.00 | 0.00 | 0.00 | 71 | 1019.0 |
| 20260505223843 | 62 | 186 | 4.0 | 7.0 | 0.00 | 0.00 | 0.00 | 70 | 1018.9 |
| 20260505223340 | 63 | 186 | 3.0 | 6.0 | 0.00 | 0.00 | 0.00 | 70 | 1018.9 |
| 20260505222836 | 63 | 184 | 1.0 | 2.0 | 0.00 | 0.00 | 0.00 | 70 | 1019.0 |
| 20260505222332 | 62 | 178 | 5.0 | 8.0 | 0.00 | 0.00 | 0.00 | 70 | 1019.1 |
| 20260505221830 | 61 | 197 | 1.0 | 5.0 | 0.00 | 0.00 | 0.00 | 72 | 1018.9 |
| 20260505221326 | 61 | 142 | 3.0 | 5.0 | 0.00 | 0.00 | 0.00 | 72 | 1019.0 |
| 20260505220823 | 62 | 172 | 3.0 | 6.0 | 0.00 | 0.00 | 0.00 | 71 | 1019.1 |
| 20260505220320 | 61 | 149 | 3.0 | 3.0 | 0.00 | 0.00 | 0.00 | 72 | 1019.4 |
| 20260505215818 | 61 | 194 | 2.0 | 5.0 | 0.00 | 0.00 | 0.00 | 74 | 1019.2 |
| 20260505215316 | 61 | 213 | 2.0 | 5.0 | 0.00 | 0.00 | 0.00 | 72 | 1019.5 |
| 20260505214814 | 61 | 172 | 4.0 | 6.0 | 0.00 | 0.00 | 0.00 | 72 | 1019.2 |
| 20260505214311 | 61 | 175 | 5.0 | 7.0 | 0.00 | 0.00 | 0.00 | 72 | 1019.3 |
| 20260505213808 | 61 | 178 | 13.0 | 16.0 | 0.00 | 0.00 | 0.00 | 72 | 1019.3 |